TimeHST,TemperatureF,Dew PointF,Humidity,Sea Level PressureIn,VisibilityMPH,Wind Direction,Wind SpeedMPH,Gust SpeedMPH,PrecipitationIn,Events,Conditions,WindDirDegrees,DateUTC
12:53 AM,77.0,68.0,74,30.08,10.0,ENE,17.3,25.3,N/A,,Mostly Cloudy,60,2012-09-24 10:53:00
1:53 AM,75.9,69.1,79,30.06,10.0,NE,18.4,-,N/A,,Scattered Clouds,50,2012-09-24 11:53:00
2:53 AM,75.9,69.1,79,30.06,10.0,NE,15.0,-,N/A,,Scattered Clouds,50,2012-09-24 12:53:00
3:05 AM,75.2,69.8,83,30.06,10.0,NE,16.1,-,N/A,,Mostly Cloudy,50,2012-09-24 13:05:00
3:13 AM,75.2,68.0,78,30.06,10.0,NE,17.3,-,N/A,,Scattered Clouds,50,2012-09-24 13:13:00
3:53 AM,75.9,68.0,76,30.05,10.0,NE,16.1,-,N/A,,Partly Cloudy,50,2012-09-24 13:53:00
4:41 AM,75.2,69.8,83,30.06,10.0,NE,15.0,-,N/A,,Mostly Cloudy,40,2012-09-24 14:41:00
4:53 AM,75.9,69.1,79,30.06,10.0,NE,18.4,-,N/A,,Mostly Cloudy,50,2012-09-24 14:53:00
5:06 AM,75.2,68.0,78,30.07,10.0,NE,16.1,-,N/A,,Mostly Cloudy,40,2012-09-24 15:06:00
5:53 AM,75.9,69.1,79,30.07,10.0,NE,16.1,-,N/A,,Mostly Cloudy,40,2012-09-24 15:53:00
6:05 AM,75.2,68.0,78,30.08,10.0,NE,15.0,-,N/A,,Mostly Cloudy,50,2012-09-24 16:05:00
6:53 AM,75.9,68.0,76,30.08,10.0,ENE,13.8,-,N/A,,Scattered Clouds,60,2012-09-24 16:53:00
7:35 AM,78.8,68.0,69,30.09,10.0,NE,12.7,-,N/A,,Mostly Cloudy,50,2012-09-24 17:35:00
7:53 AM,79.0,68.0,69,30.09,10.0,NE,15.0,-,N/A,,Mostly Cloudy,40,2012-09-24 17:53:00
8:10 AM,80.6,68.0,65,30.10,10.0,ENE,13.8,-,N/A,,Mostly Cloudy,60,2012-09-24 18:10:00
8:53 AM,81.0,68.0,65,30.11,10.0,NE,15.0,-,N/A,,Clear,40,2012-09-24 18:53:00
9:53 AM,82.0,66.9,60,30.12,10.0,NE,15.0,-,N/A,,Partly Cloudy,50,2012-09-24 19:53:00
10:33 AM,82.4,68.0,62,30.13,10.0,NE,13.8,-,N/A,,Mostly Cloudy,40,2012-09-24 20:33:00
10:53 AM,82.9,68.0,60,30.12,10.0,NE,16.1,-,N/A,,Mostly Cloudy,50,2012-09-24 20:53:00
11:53 AM,82.9,68.0,60,30.10,10.0,NE,17.3,-,N/A,,Scattered Clouds,40,2012-09-24 21:53:00
12:53 PM,84.0,68.0,58,30.07,10.0,NE,18.4,-,N/A,,Partly Cloudy,40,2012-09-24 22:53:00
1:53 PM,84.0,68.0,58,30.05,10.0,NE,16.1,-,N/A,,Partly Cloudy,40,2012-09-24 23:53:00
2:53 PM,82.9,66.9,58,30.04,10.0,NE,16.1,-,N/A,,Scattered Clouds,40,2012-09-25 00:53:00
3:53 PM,81.0,66.9,62,30.03,10.0,NE,18.4,-,N/A,,Scattered Clouds,40,2012-09-25 01:53:00
4:53 PM,81.0,66.0,60,30.04,10.0,NE,17.3,-,N/A,,Partly Cloudy,40,2012-09-25 02:53:00
5:53 PM,78.1,66.0,66,30.05,10.0,NNE,17.3,-,N/A,,Partly Cloudy,30,2012-09-25 03:53:00
6:53 PM,75.9,66.0,71,30.06,10.0,NE,13.8,-,N/A,,Clear,40,2012-09-25 04:53:00
7:53 PM,75.9,66.9,74,30.07,10.0,NE,16.1,-,N/A,,Partly Cloudy,40,2012-09-25 05:53:00
8:53 PM,75.9,66.0,71,30.08,10.0,NE,16.1,-,N/A,,Partly Cloudy,50,2012-09-25 06:53:00
9:53 PM,75.9,66.0,71,30.09,10.0,NE,16.1,-,N/A,,Partly Cloudy,40,2012-09-25 07:53:00
10:53 PM,75.9,66.0,71,30.10,10.0,NE,16.1,-,N/A,,Partly Cloudy,40,2012-09-25 08:53:00
11:53 PM,75.9,66.9,74,30.09,10.0,NE,15.0,-,N/A,,Mostly Cloudy,40,2012-09-25 09:53:00